Погода в Опеченском Посаде

Россия / Новгородская область     58°16′34″N   34°07′04″E
темп.,
°C
ветер,
м/с
пор.,
м/с
влажн.,
%
обл.,
%
осадки,
мм/ч
давл.,
гПа
погр.,
м
23 октября, сб
сб2300:00+5юз7157233 0.0 9931274
03:00+6юз71577100 0.5 9931548
06:00+5зюз51188100 0.4 9941271
09:00+5юз388658 2.4 996715
12:00+6зюз597112 0.1 9981113
15:00+6зюз4876100 0.4 10001032
18:00+4з3788100 0.2 1002640
21:00+4зюз2696100 0.3 1004567
24 октября, вс
вс2400:00+4з2593100 0.1 1006741
03:00+2сз5996100 0.8 1007668
06:00+1сз51296100 0.6 1010629
09:00+1ссз6118592 1.2 1013975
12:00+2ссз6107513 0.2 10171178
15:00+2ссз59715 0.3 10191131
18:000ссз49785 0.0 1022610
21:00−1сз38865 0.0 1025389
25 октября, пн
пн2500:00−2зсз26885 0.0 1026196
03:00−2з2487100 0.0 1027147
06:00−1юз268491 0.0 1027231
09:000ююз41074100 0.0 1025444
12:00+2ююз51372100 0.1 1024747
15:00+3юз5148199 0.8 1022677
18:00+3юз5148590 0.0 1021653
21:00+3юз51284100 0.0 1021714
26 октября, вт
вт2600:00+2юз4128945 0.0 1020438
03:00+2юз41385100 0.0 1019442
06:00+2юз41384100 0.0 1018474
09:00+2юз41381100 0.0 1017507
12:00+4юз41174100 0.0 1016602
15:00+4юз41078100 0.0 1015600
18:00+3юз41185100 0.0 1015453
21:00+3юз41286100 0.0 1014456
27 октября, ср
ср2700:00+4юз41285100 0.0 1013414
03:00+4юз41288100 0.1 1012431
06:00+4юз41095100 0.9 1011438
09:00+5зюз41095100 0.9 1011446
12:00+5зюз41094100 0.1 1011505
15:00+6зюз41190100 0.1 1011589
18:00+6з4118653 0.5 1011664
21:00+5з4129231 0.5 1012588